This is the latest recevied weather packets stored in our database for station/object SM0UQT-10. If no packets are shown the sender has not sent any weather packets the latest 10 day(s).
| Time | Temp. | Humidity | Pressure | Rain* | Wind** | Luminosity | Snow |
|---|---|---|---|---|---|---|---|
| 1777818857 | 26.67° C | 37% | 1015.5 hPa | - | - | - | - |
| 1777818712 | 26.67° C | 37% | 1015.5 hPa | - | - | - | - |
| 1777817562 | 27.22° C | 36% | 1015.6 hPa | - | - | - | - |
| 1777817512 | 27.22° C | 36% | 1015.6 hPa | - | - | - | - |
| 1777816420 | 27.22° C | 33% | 1015.8 hPa | - | - | - | - |
| 1777816312 | 27.22° C | 33% | 1015.8 hPa | - | - | - | - |
| 1777815161 | 26.67° C | 35% | 1015.9 hPa | - | - | - | - |
| 1777815112 | 26.67° C | 35% | 1015.9 hPa | - | - | - | - |
| 1777813959 | 27.22° C | 33% | 1015.7 hPa | - | - | - | - |
| 1777813911 | 27.22° C | 33% | 1015.7 hPa | - | - | - | - |
| 1777812782 | 27.22° C | 32% | 1015.9 hPa | - | - | - | - |
| 1777812711 | 27.22° C | 32% | 1015.9 hPa | - | - | - | - |
| 1777811559 | 27.22° C | 32% | 1015.9 hPa | - | - | - | - |
| 1777811510 | 27.22° C | 32% | 1015.9 hPa | - | - | - | - |
| 1777811486 | 27.22° C | 33% | 1016.1 hPa | - | - | - | - |
| 1777810310 | 27.22° C | 33% | 1016.1 hPa | - | - | - | - |
| 1777809219 | 27.22° C | 33% | 1016.3 hPa | - | - | - | - |
| 1777809110 | 27.22° C | 33% | 1016.3 hPa | - | - | - | - |
| 1777808002 | 27.22° C | 33% | 1016.3 hPa | - | - | - | - |
| 1777807909 | 27.22° C | 33% | 1016.3 hPa | - | - | - | - |
| 1777807103 | 27.22° C | 33% | 1016.1 hPa | - | - | - | - |
| 1777806708 | 27.22° C | 33% | 1016.1 hPa | - | - | - | - |
| 1777806504 | 27.22° C | 33% | 1016.2 hPa | - | - | - | - |
| 1777805508 | 27.22° C | 33% | 1016.2 hPa | - | - | - | - |
| 1777804360 | 27.22° C | 33% | 1016 hPa | - | - | - | - |
* Rain since midnight (hover to see other rain measurements)
** Current wind speed in m/s (hover to see current wind gust speed)